Regional Weather Roundup
Issued by NWS

Home | Current Version | Previous Version | Text Only | Print | Product List | Glossary On
Versions: 1 2 3 4 5 6 7 8 9 10 11 12 13 14 15 16 17 18 19 20 21 22 23 24 25 26 27
000
ASUS44 KLIX 240906
RWRLA
LOUISIANA WEATHER ROUNDUP
NATIONAL WEATHER SERVICE NEW ORLEANS LA
400 AM CDT TUE APR 24 2018

NOTE: "FAIR" INDICATES FEW OR NO CLOUDS BELOW 12,000 FEET WITH NO
      SIGNIFICANT WEATHER AND/OR OBSTRUCTIONS TO VISIBILITY.
      SKY/WX - SKY CONDITION AND SIGNIFICANT WEATHER.
      TMP - AIR TEMPERATURE.    DP   - DEWPOINT TEMPERATURE.
      RH  - RELATIVE HUMIDITY.  PRES - PRESSURE.
      HX  - HEAT INDEX.         WCI  - WIND CHILL INDEX.

*  THESE STATIONS ARE NOT NWS OR FAA STATIONS AND ARE NOT UNDER
   NWS QUALITY CONTROL.

LAZ040-048-061>063-065-066-069-241000-
SOUTHEAST LOUISIANA

CITY           SKY/WX    TMP DP  RH WIND       PRES   REMARKS
N.O. INTL ARPT FAIR      60  59  96 SW3       29.98S
N.O. LAKEFRONT FAIR      64  57  78 SW7       29.98F
N.O. DOWNTOWN* FAIR      65  56  72 S3        29.99F
RESERVE*       FAIR      59  55  85 CALM      29.99R
SLIDELL        FAIR      53  51  93 CALM      29.98R
BATON ROUGE    FAIR      56  54  93 W5        29.99S
BOOTHVILLE     CLOUDY    65  58  78 CALM      30.00S
BELLE CHASSE   CLOUDY    60  59  96 CALM      29.98F
BOGALUSA*      FAIR      54  51  90 CALM      29.97F
GALLIANO*      CLOUDY    60  57  90 CALM      29.98F
NEW ROADS*     FAIR      54  51  92 CALM      30.00R
GONZALES*      FAIR      56  55  97 CALM      29.98S
HAMMOND*       FAIR      54  52  94 CALM      29.98F
HOUMA*         MOCLDY    59  57  94 CALM      29.99S
PORT FOURCHON* CLOUDY    68  63  83 NW9       29.99S

$$

LAZ041-044-053-054-241000-
SOUTHWEST LOUISIANA

CITY           SKY/WX    TMP DP  RH WIND       PRES   REMARKS
LAKE CHARLES   FAIR      56  54  93 CALM      30.01R
LAFAYETTE      FAIR      56  55  97 S3        30.00S
PATTERSON      FAIR      58  57  97 CALM      30.00S
SALT POINT       N/A    N/A N/A N/A N3        29.98F
NEW IBERIA     FAIR      56  52  86 W3        30.00F
CHENAULT AIRPK FAIR      58  55  88 CALM      30.01S

$$

LAZ027-028-241000-
CENTRAL LOUISIANA

CITY           SKY/WX    TMP DP  RH WIND       PRES   REMARKS
FORT POLK      FAIR      54  52  93 CALM      29.99S
ALEXANDRIA INT FAIR      53  52  96 W3        29.98R
ALEXANDRIA     FAIR      50  50 100 W3        29.98S FOG

$$

LAZ001-002-241000-
NORTHWEST LOUISIANA

CITY           SKY/WX    TMP DP  RH WIND       PRES   REMARKS
SHREVEPORT     FAIR      56  54  93 CALM      29.99R
BARKSDALE AFB  FAIR      54  53  94 CALM      29.99R
DTN SHREVEPORT FAIR      56  53  90 W5        29.99R

$$

LAZ014-016-241000-
NORTHEAST LOUISIANA

CITY           SKY/WX    TMP DP  RH WIND       PRES   REMARKS
MONROE         FAIR      58  55  90 NW7       29.98R
TALLULAH       FAIR      59  57  93 W5        29.95S

$$





USA.gov is the U.S. government's official web portal to all federal, state and local government web resources and services.